Terminal Aerodrome Forecast
Issued by NWS

Home | Current Version | Previous Version | Text Only | Print | Product List | Glossary On
Versions: 1 2 3 4 5 6 7 8 9 10 11 12 13
000
FTUS46 KSGX 011100
TAFSNA
TAF
KSNA 011135Z 0112/0212 VRB03KT P6SM BKN012
     FM011530 VRB03KT P6SM SCT012 SCT200
     FM011800 22010KT P6SM FEW010 SCT200
     FM020100 VRB05KT P6SM FEW012 SCT200
     FM020600 VRB05KT P6SM BKN010=

USA.gov is the U.S. government's official web portal to all federal, state and local government web resources and services.